This demonstration page uses our WeatherBlox Daily Observations layout. Learn more.

Hourly Observations for January 11, 2016

Temp ( °F °C ) Dew Point ( °F °C ) Humidity (%) Winds ( mph kmh ) Pressure ( in mb ) Visibility ( mi km ) Precip ( " mm )
12:15 am 00:15 Clear 25 -3.7 16 -8.7 69 69 W 10 17 30.12 1020 10 16.0934 0 0
12:35 am 00:35 Clear 26 -3.5 16 -8.7 68 68 W 12 19 30.09 1019 10 16.0934 0 0
12:55 am 00:55 Clear 25 -3.7 16 -8.8 68 68 W 13 20 30.12 1020 10 16.0934 0 0
1:15 am 01:15 Clear 25 -4 16 -8.7 70 70 W 12 19 30.06 1018 10 16.0934 0 0
1:35 am 01:35 Clear 25 -3.7 17 -8.5 70 70 W 10 17 30.06 1018 10 16.0934 0 0
1:55 am 01:55 Clear 25 -4 17 -8.6 71 71 W 9 15 30.06 1018 10 16.0934 0 0
2:15 am 02:15 Partly Cloudy 25 -3.9 17 -8.3 72 72 W 9 15 30.06 1018 10 16.0934 0 0
2:35 am 02:35 Partly Cloudy 26 -3.6 18 -8 72 72 WNW 8 13 30.06 1018 10 16.0934 0 0
2:55 am 02:55 Mostly Cloudy 26 -3.5 18 -7.7 73 73 W 10 17 30.09 1019 10 16.0934 0 0
3:15 am 03:15 Cloudy 26 -3.1 19 -7.5 72 72 W 10 17 30.09 1019 10 16.0934 0 0
3:35 am 03:35 Mostly Cloudy 27 -2.6 19 -7.5 69 69 W 10 17 30.09 1019 10 16.0934 0 0
3:55 am 03:55 Mostly Cloudy 27 -2.7 19 -7.5 70 70 WNW 8 13 30.09 1019 10 16.0934 0 0
4:15 am 04:15 Partly Cloudy 27 -2.9 18 -7.8 69 69 W 8 13 30.06 1018 10 16.0934 0 0
4:35 am 04:35 Mostly Cloudy 26 -3.2 18 -7.7 71 71 W 8 13 30.06 1018 10 16.0934 0 0
4:55 am 04:55 Cloudy 28 -2.5 19 -7.4 69 69 W 10 17 30.06 1018 10 16.0934 0 0
5:15 am 05:15 Cloudy 28 -2.5 19 -7.5 69 69 W 7 11 30.06 1018 10 16.0934 0 0
5:35 am 05:35 Cloudy 28 -2.4 19 -7.3 69 69 W 8 13 30.06 1018 10 16.0934 0 0
5:55 am 05:55 Cloudy 28 -2.1 19 -7.1 69 69 W 13 20 30.06 1018 10 16.0934 0 0
6:15 am 06:15 Cloudy 28 -2.5 19 -7 72 72 W 12 19 30.06 1018 10 16.0934 0 0
6:35 am 06:35 Cloudy 28 -2.2 20 -6.9 71 71 W 13 20 30.06 1018 10 16.0934 0 0
6:55 am 06:55 Cloudy 29 -1.8 19 -7.1 67 67 W 14 22 30.06 1018 10 16.0934 0 0
7:15 am 07:15 Cloudy 29 -1.9 19 -7.1 68 68 W 12 19 30.06 1018 10 16.0934 0 0
7:35 am 07:35 Partly Cloudy 28 -2.5 19 -7.5 69 69 W 12 19 30.06 1018 10 16.0934 0 0
7:55 am 07:55 Mostly Cloudy 28 -2.5 19 -7.3 70 70 W 10 17 30.06 1018 10 16.0934 0 0
8:15 am 08:15 Cloudy 28 -2.5 19 -7.2 70 70 W 10 17 30.06 1018 10 16.0934 0 0
8:35 am 08:35 Cloudy 28 -2.3 19 -7 70 70 W 9 15 30.06 1018 10 16.0934 0 0
8:55 am 08:55 Cloudy 28 -2 20 -6.7 71 71 W 9 15 30.09 1019 10 16.0934 0 0
9:15 am 09:15 Cloudy 29 -1.8 20 -6.7 70 70 W 10 17 30.09 1019 10 16.0934 0 0
9:35 am 09:35 Cloudy 28 -2 20 -6.5 72 72 W 8 13 30.09 1019 10 16.0934 0 0
9:55 am 09:55 Mostly Cloudy 30 -1.2 21 -6.1 70 70 W 8 13 30.09 1019 10 16.0934 0 0
10:15 am 10:15 Partly Cloudy 31 -0.4 21 -6 66 66 WNW 10 17 30.06 1018 10 16.0934 0 0
10:35 am 10:35 Sunny 32 0.2 22 -5.4 66 66 WNW 7 11 30.06 1018 10 16.0934 0 0
10:55 am 10:55 Sunny 34 1.2 24 -4.6 66 66 WNW 9 15 30.06 1018 10 16.0934 0 0
11:15 am 11:15 Sunny 36 2.2 25 -3.8 65 65 NW 13 20 30.09 1019 10 16.0934 0 0
11:35 am 11:35 Sunny 37 2.5 25 -3.7 64 64 NW 16 26 30.03 1017 10 16.0934 0 0
11:55 am 11:55 Sunny 37 2.6 25 -3.8 63 63 NW 16 26 30.03 1017 10 16.0934 0 0
12:15 pm 12:15 Sunny 37 2.7 25 -3.9 62 62 WNW 12 19 30.03 1017 10 16.0934 0 0
12:35 pm 12:35 Sunny 37 3 25 -3.7 62 62 NW 12 19 30 1016 10 16.0934 0 0
12:55 pm 12:55 Sunny 37 3 25 -3.9 61 61 WNW 14 22 30 1016 10 16.0934 0 0
1:15 pm 13:15 Sunny 37 3 25 -3.9 61 61 NW 9 15 30 1016 10 16.0934 0 0
1:35 pm 13:35 Sunny 38 3.2 26 -3.6 61 61 WNW 10 17 30 1016 10 16.0934 0 0
1:55 pm 13:55 Partly Cloudy 38 3.3 26 -3.6 61 61 WNW 8 13 29.97 1015 10 16.0934 0 0
2:15 pm 14:15 Partly Cloudy 39 3.7 27 -3 62 62 W 7 11 29.97 1015 10 16.0934 0 0
2:35 pm 14:35 Sunny 39 4 27 -2.6 62 62 W 7 11 29.97 1015 10 16.0934 0 0
2:55 pm 14:55 Sunny 40 4.5 26 -3.1 58 58 WNW 6 9 29.97 1015 10 16.0934 0 0
3:15 pm 15:15 Sunny 41 5.1 28 -2.5 58 58 W 8 13 29.97 1015 10 16.0934 0 0
3:35 pm 15:35 Sunny 41 5 28 -2.5 59 59 WNW 8 13 29.97 1015 10 16.0934 0 0
3:55 pm 15:55 Sunny 41 4.9 26 -3.2 56 56 WNW 8 13 29.97 1015 10 16.0934 0 0
4:15 pm 16:15 Partly Cloudy 39 3.9 28 -2.5 63 63 NW 7 11 30 1016 10 16.0934 0 0
4:35 pm 16:35 Partly Cloudy 39 3.9 26 -3.3 60 60 WNW 9 15 30 1016 10 16.0934 0 0
4:55 pm 16:55 Partly Cloudy 38 3.2 25 -3.7 61 61 WNW 8 13 30 1016 10 16.0934 0 0
5:15 pm 17:15 Sunny 37 2.9 25 -4 61 61 WNW 7 11 30 1016 10 16.0934 0 0
5:35 pm 17:35 Clear 35 1.8 25 -3.7 67 67 W 7 11 30.03 1017 10 16.0934 0 0
5:55 pm 17:55 Clear 34 1.2 26 -3.6 71 71 W 8 13 30.03 1017 10 16.0934 0 0
6:15 pm 18:15 Clear 34 0.9 25 -3.9 71 71 W 8 13 30.03 1017 10 16.0934 0 0
6:35 pm 18:35 Clear 35 1.5 24 -4.3 66 66 WNW 9 15 30.06 1018 10 16.0934 0 0
6:55 pm 18:55 Clear 33 0.4 24 -4.5 70 70 WNW 7 11 30.06 1018 10 16.0934 0 0
7:15 pm 19:15 Clear 32 0 24 -4.5 72 72 W 8 13 30.06 1018 10 16.0934 0 0
7:35 pm 19:35 Clear 32 0.2 23 -4.9 69 69 W 9 15 30.06 1018 10 16.0934 0 0
7:55 pm 19:55 Clear 33 0.3 23 -5.1 67 67 W 8 13 30.06 1018 10 16.0934 0 0
8:15 pm 20:15 Clear 32 -0.1 23 -5.2 69 69 W 8 13 30.06 1018 10 16.0934 0 0
8:35 pm 20:35 Clear 31 -0.5 22 -5.5 69 69 W 7 11 30.06 1018 10 16.0934 0 0
8:55 pm 20:55 Clear 31 -0.8 22 -5.5 71 71 W 6 9 30.09 1019 10 16.0934 0 0
9:15 pm 21:15 Clear 32 -0.2 22 -5.5 68 68 W 7 11 30.06 1018 10 16.0934 0 0
9:35 pm 21:35 Clear 31 -0.3 22 -5.6 68 68 WNW 5 7 30.06 1018 10 16.0934 0 0
9:55 pm 21:55 Clear 29 -1.9 22 -5.8 75 75 Calm 30.09 1019 10 16.0934 0 0
10:15 pm 22:15 Clear 28 -2 21 -5.9 75 75 NW 6 9 30.09 1019 10 16.0934 0 0
10:35 pm 22:35 Clear 26 -3.2 20 -6.5 78 78 WNW 3 6 30.09 1019 10 16.0934 0 0
10:55 pm 22:55 Clear 28 -2.1 21 -6.1 74 74 WNW 5 7 30.09 1019 10 16.0934 0 0
11:15 pm 23:15 Clear 28 -2 21 -6 74 74 W 5 7 30.12 1020 10 16.0934 0 0
11:35 pm 23:35 Clear 28 -2.1 21 -6 75 75 W 6 9 30.12 1020 10 16.0934 0 0
11:55 pm 23:55 Clear 28 -2 21 -5.9 75 75 WNW 5 7 30.12 1020 10 16.0934 0 0

Powered by AerisWeather